Location: Astronomy Club of Akron Observatory
(40.9700°N, 81.5606°W)
Time: 12:10:01
(UTC-04:00)

ATLAS 2AS CENTAUR R/B - Visible Passes

Search period start: 05 May 2016 00:00
Search period end: 15 May 2016 00:00
Orbit: 904 x 1308 km, 63.7° (Epoch: 01 May)

Date Brightness Start Highest point End Pass type
(mag) Time Alt. Az. Time Alt. Az. Time Alt. Az.
05 May 3.1 20:59:18 10° NNW 21:07:30 83° NE 21:15:09 10° SE visible
05 May 4.8 22:51:53 10° WNW 22:57:34 22° WSW 23:02:59 10° SSW visible
06 May 4.2 22:06:11 10° NW 22:13:13 35° WSW 22:19:51 10° S visible
07 May 3.7 21:20:55 10° NW 21:28:43 54° WSW 21:36:00 10° S visible
08 May 5.1 22:29:25 10° WNW 22:33:46 16° WSW 22:37:58 10° SW visible
09 May 4.7 21:43:11 10° NW 21:49:31 26° WSW 21:55:31 10° SSW visible
10 May 4.2 20:57:42 10° NW 21:05:07 42° WSW 21:12:04 10° S visible
11 May 5.5 22:08:06 10° W 22:09:56 11° W 22:11:44 10° WSW visible
12 May 5.1 21:20:26 10° WNW 21:25:45 20° WSW 21:30:52 10° SSW visible
